FENGYUN 1C DEB

Satellite information

Favourite Embed

Satellite Type and Status

DEBRISIN ORBIT

Key statistics

Satellite FENGYUN 1C DEB at a glance.

Uptime

9715

Days in orbit

Revolutions

≈ 14.3

Per day

Orbit

SSO

Sun Synchronous Orbit

Inclination

99.1

Latest

Satellite identification and parameters

Extended collection of information and parameters for FENGYUN 1C DEB.

Object identification

Identified? True

Debris? True

Object name: FENGYUN 1C DEB

International designator: 1999-025BHD

Object number (NORAD): 31151

Object ID (CCSDS): 31151

Country: PEOPLES REPUBLIC OF CHINA (PRC)

Current information (Y/N): Y

RCS size: SMALL

Orbital parameters

Period: 100.997 minutes

Inclination: 99.1364 deg

SMA: 7183.984 km

Apoapsis: 846.489 km

Periapsis: 765.21 km

RAAN: 350.8395 deg

Eccentricy: 0.00565696

Argument of periapsis: 28.7499 deg

Mean anomaly: 331.6777 deg

Mean motion: 14.25787148 rev/day

Mean motion (dot): 0.0001033 rev/day2

B* drag term: 0.0042879871 1/REarth

Two-line elements (TLE)

Creation date: Dec. 11, 2025, 7:14 p.m.

Reference frame: TEME

Reference center: EARTH

Epoch: Dec. 11, 2025, 10:59 a.m. UTC

TLE line 0: 0 FENGYUN 1C DEB

TLE line 1: 1 31151U 99025BHD 25345.45816334 .00010330 00000-0 42880-2 0 9990

TLE line 2: 2 31151 99.1364 350.8395 0056570 28.7499 331.6777 14.25787148959565

Live tracking on map

Real-time ground track for satellite FENGYUN 1C DEB.

In-orbit conjunctions

A list of the most updated potential collisions computed for object FENGYUN 1C DEB.

Target Orbit TCA Probability of collision Miss distance Type
COSMOS 1420 LEO 2025-11-14 07:27:41 0.0003300953 428.0 (m) PAYLOAD
COSMOS 836 LEO 2024-09-12 11:06:23 0.0001281605 487.0 (m) PAYLOAD

Associated space launch

Chinese polar orbiting meteorological satellite

FENGYUN 1C DEB was lifted into orbit during the mission ‘Long March 4B | Feng Yun 1C’, on board a Long March 4B space rocket.

The launch took place on May 10, 1999, 1:33 a.m. from Launch Complex 7.

For more information about the launch, click the button.

Launch to space Long March 4B | Feng Yun 1C
Long March 4B | Feng Yun 1C

Agency: N/A

Status: Launch Successful

Launch date: May 10, 1999, 1:33 a.m. UTC

Rocket: Long March 4B

Launch pad: Launch Complex 7

Location: Taiyuan Satellite Launch Center, People's Republic of China

...

Latest news about this satellite

There are no fresh news available about this satellite. Check back as we update our databases every day.


Newsletter sign-up

Weekly statistics, charts and insights to help you stay on top of the space industry.